Bennington, VT

9:12 AM EST on December 11, 2019 (GMT -0500)
Morse State

Weather History for KDDH - September, 2019

Change the Weather History Date:

Monday, September 2, 2019

  Actual Average Record
Temperature  
Mean Temperature 66 °F 64 °F  
Max Temperature 73 °F 75 °F 91 °F (2010)
Min Temperature 59 °F 52 °F 33 °F (2017)
Degree Days  
Heating Degree Days 0 3  
Month to date heating degree days 6 6  
Since 1 July heating degree days 41 78  
Cooling Degree Days 1 2  
Month to date cooling degree days 1 4  
Year to date cooling degree days 352 292  
Growing Degree Days 16 (Base 50)    
Moisture  
Dew Point 60 °F    
Average Humidity 79    
Maximum Humidity 100    
Minimum Humidity 58    
Precipitation  
Precipitation 0.84 in 0.09 in 0.58 in (2013)
Month to date precipitation 0.84 0.19  
Year to date precipitation 28.31 27.73  
Sea Level Pressure  
Sea Level Pressure 30.03 in    
Wind  
Wind Speed 4 mph (SSW)    
Max Wind Speed 13 mph    
Max Gust Speed 18 mph    
Visibility 7 miles    
Events Rain    
T = Trace of Precipitation, MM = Missing Value Source: NWS Daily Summary

Daily Weather History Graph

Daily Weather History Graph

Search for Another Location

Airport or City:

Astronomy

Sep. 02, 2019 Rise Set
Actual Time 6:18 AM EDT 7:26 PM EDT
Civil Twilight 5:49 AM EDT 7:55 PM EDT
Nautical Twilight 5:14 AM EDT 8:30 PM EDT
Astronomical Twilight 4:37 AM EDT 9:06 PM EDT
Moon 10:02 AM EDT (9/2) 9:40 PM EDT (9/2)
Length of Visible Light 14h 06m
Length of Day
13h 07m
Waxing Crescent, 15% of the Moon is Illuminated
Sep 2
Waxing Crescent
Sep 5
First Quarter
Sep 14
Full
Sep 21
Last Quarter
Sep 28
New

Hourly Weather History & Observations

Time (EDT) Temp. Dew Point Humidity Pressure Visibility Wind Dir Wind Speed Gust Speed Precip Events Conditions
12:54 AM 64.9 °F 54.0 °F 68% 30.19 in 10.0 mi SSE 4.6 mph - N/A   Overcast
1:54 AM 66.0 °F 51.1 °F 59% 30.17 in 10.0 mi Variable 3.5 mph - N/A   Overcast
2:54 AM 62.1 °F 53.1 °F 72% 30.16 in 10.0 mi East 5.8 mph - 0.01 in   Overcast
3:54 AM 63.0 °F 53.1 °F 70% 30.13 in 10.0 mi SSW 4.6 mph - N/A   Mostly Cloudy
4:03 AM 64.0 °F 53.1 °F 67% 30.14 in 10.0 mi Calm Calm - N/A   Mostly Cloudy
4:18 AM 63.0 °F 54.0 °F 72% 30.14 in 10.0 mi ESE 3.5 mph - N/A   Overcast
4:40 AM 62.1 °F 54.0 °F 75% 30.12 in 10.0 mi East 5.8 mph - 0.00 in   Overcast
4:54 AM 64.0 °F 53.1 °F 67% 30.12 in 10.0 mi Calm Calm - 0.00 in Rain Light Rain
5:23 AM 61.0 °F 55.0 °F 81% 30.12 in 1.8 mi Variable 3.5 mph - 0.16 in Rain Heavy Rain
5:35 AM 60.1 °F 55.9 °F 86% 30.12 in 3.0 mi Calm Calm - 0.27 in Rain Light Rain
5:54 AM 59.0 °F 57.0 °F 93% 30.11 in 10.0 mi North 3.5 mph - 0.28 in Rain Light Rain
6:54 AM 62.1 °F 57.0 °F 84% 30.09 in 10.0 mi Variable 4.6 mph - 0.06 in   Overcast
7:54 AM 63.0 °F 57.9 °F 84% 30.09 in 10.0 mi Calm Calm - N/A   Overcast
8:54 AM 63.0 °F 57.9 °F 84% 30.08 in 9.0 mi South 4.6 mph - 0.06 in Rain Light Rain
9:09 AM 62.1 °F 59.0 °F 90% 30.07 in 7.0 mi Variable 3.5 mph - 0.01 in Rain Light Rain
9:40 AM 63.0 °F 59.0 °F 87% 30.07 in 10.0 mi Calm Calm - 0.01 in Rain Light Rain
9:54 AM 64.0 °F 60.1 °F 87% 30.05 in 10.0 mi Calm Calm - 0.01 in Rain Light Rain
10:54 AM 66.0 °F 60.1 °F 81% 30.01 in 10.0 mi Variable 5.8 mph - 0.01 in Rain Light Rain
11:54 AM 66.0 °F 61.0 °F 84% 29.99 in 5.0 mi South 9.2 mph - 0.03 in Rain Rain
12:23 PM 64.9 °F 61.0 °F 87% 30.00 in 1.8 mi South 5.8 mph - 0.15 in Rain Heavy Rain
12:33 PM 64.9 °F 61.0 °F 87% 29.99 in 3.0 mi Variable 5.8 mph - 0.18 in Rain Light Rain
12:54 PM 66.0 °F 61.0 °F 84% 29.98 in 5.0 mi Variable 5.8 mph 16.1 mph 0.20 in Rain Light Rain
1:02 PM 64.9 °F 61.0 °F 87% 29.99 in 6.0 mi WSW 8.1 mph - 0.00 in Rain Light Rain
1:54 PM 70.0 °F 64.0 °F 81% 29.97 in 10.0 mi SSW 4.6 mph - 0.00 in   Overcast
2:54 PM 71.1 °F 64.0 °F 78% 29.95 in 10.0 mi South 3.5 mph - N/A   Overcast
3:36 PM 72.0 °F 64.0 °F 76% 29.95 in 10.0 mi South 8.1 mph - 0.00 in   Overcast
3:54 PM 71.1 °F 64.0 °F 78% 29.94 in 10.0 mi SW 4.6 mph - 0.00 in   Overcast
4:01 PM 71.1 °F 64.0 °F 78% 29.94 in 9.0 mi South 5.8 mph - 0.01 in Rain Light Rain
4:54 PM 68.0 °F 64.9 °F 90% 29.95 in 7.0 mi WSW 3.5 mph - 0.06 in Rain Light Rain
5:54 PM 68.0 °F 66.0 °F 93% 29.95 in 10.0 mi South 3.5 mph - 0.00 in Rain Light Rain
6:49 PM 66.2 °F 64.4 °F 94% 29.97 in 1.5 mi Calm Calm - 0.10 in Rain Heavy Rain
6:54 PM 66.9 °F 66.0 °F 97% 29.96 in 1.2 mi SW 5.8 mph - 0.12 in Rain Rain
6:59 PM 66.9 °F 64.9 °F 93% 29.97 in 3.0 mi SW 4.6 mph - 0.00 in Rain Light Rain
7:54 PM 64.9 °F 63.0 °F 93% 29.97 in 9.0 mi Calm Calm - 0.00 in Rain Light Rain
8:01 PM 64.0 °F 63.0 °F 96% 29.97 in 1.8 mi Calm Calm - 0.00 in   Mostly Cloudy
8:07 PM 63.0 °F 62.1 °F 97% 29.98 in 0.8 mi Calm Calm - 0.00 in   Mostly Cloudy
8:15 PM 63.0 °F 62.1 °F 97% 29.98 in 0.8 mi Calm Calm - 0.00 in   Mostly Cloudy
8:22 PM 64.0 °F 63.0 °F 96% 29.98 in 1.5 mi Calm Calm - 0.00 in   Mostly Cloudy
8:39 PM 64.0 °F 63.0 °F 96% 29.98 in 3.0 mi SSW 4.6 mph - 0.00 in   Overcast
8:54 PM 64.9 °F 63.0 °F 93% 29.98 in 10.0 mi SW 4.6 mph - 0.00 in   Mostly Cloudy
9:02 PM 64.9 °F 63.0 °F 93% 29.99 in 10.0 mi SW 5.8 mph - N/A   Scattered Clouds
9:54 PM 66.0 °F 62.1 °F 87% 29.99 in 10.0 mi WSW 6.9 mph - N/A   Overcast
10:54 PM 64.0 °F 61.0 °F 90% 30.01 in 10.0 mi SW 3.5 mph - N/A   Mostly Cloudy
11:34 PM 63.0 °F 61.0 °F 93% 30.02 in 8.0 mi Calm Calm - N/A   Mostly Cloudy
11:47 PM 62.1 °F 61.0 °F 96% 30.02 in 7.0 mi Calm Calm - N/A   Mostly Cloudy
11:54 PM 62.1 °F 60.1 °F 93% 30.01 in 8.0 mi South 4.6 mph - N/A   Scattered Clouds